AirNav   Everest Fuels
 
 1002 users online  

97MI Hawk Hollow Heliport
Brighton, Michigan, USA

GOING TO BRIGHTON?


FAA INFORMATION EFFECTIVE 18 JUNE 2020

Location

FAA Identifier: 97MI
Lat/Long: 42-33-40.6800N 083-44-07.8000W
42-33.678000N 083-44.130000W
42.5613000,-83.7355000
(estimated)
Elevation: 950 ft. / 290 m (estimated)
From city: 3 miles ENE of BRIGHTON, MI
Time zone: UTC -4 (UTC -5 during Standard Time)
Zip code: 48116

Heliport Operations

Heliport use: Private use. Permission required prior to landing
Activation date: 01/2018
Control tower: no
ARTCC: CLEVELAND CENTER
FSS: LANSING FLIGHT SERVICE STATION
Attendance: 
Wind indicator: lighted
Segmented circle: no

Heliport Communications

WX AWOS-3 at OZW (12 nm W): 118.875 (517-546-4450)
WX ASOS at PTK (15 nm NE): 125.025 (248-886-8551)

Nearby radio navigation aids

VOR radial/distance  VOR name  Freq  Var
SVMr329/11.1SALEM VORTAC114.3003W
FNTr185/24.3FLINT VORTAC116.9006W
DXOr328/26.5DETROIT VOR/DME113.4006W
CRLr341/33.2CARLETON VOR/DME115.7003W

 
NDB name  Hdg/Dist  Freq  Var  ID
TECUMSEH018/32.323906WTCU - -.-. ..-
GROSSE ILE324/37.841907WRYS .-. -.-- ...

Heliport Services

Runway Information

Helipad H1

Dimensions: 20 x 20 ft. / 6 x 6 m
Surface: concrete, in excellent condition
Operational restrictions: TLOF 20X20 FT, FATO 60X60 FT. INGRESS/EGRESS N/S.
Latitude: 42-33.678000N
Longitude: 083-44.130000W
Elevation: 950.0 ft.
Traffic pattern: leftleft

Heliport Ownership and Management from official FAA records

Ownership: Privately-owned
Owner: HAWK HOLLOW FARM, LLC
7915 KENSINGTON COURT
BRIGHTON, MI 48116
Phone 248-563-1140
Manager: TIM BENTLEY
7915 KENSINGTON COURT
BRIGHTON, MI 48116
Phone 248-563-1140

Heliport Operational Statistics

Aircraft based on the field: 1
Helicopters: 1
    

Additional Remarks

FOR CD CTC CLEVELAND ARTCC AT 440-774-0490.

Instrument Procedures

There are no published instrument procedures at 97MI.

Some nearby airports with instrument procedures:

Y47 - Oakland Southwest Airport (6 nm SE)
KOZW - Livingston County Spencer J Hardy Airport (12 nm W)
9G2 - Price's Airport (15 nm N)
KPTK - Oakland County International Airport (15 nm NE)
1D2 - Canton-Plymouth-Mettetal Airport (18 nm SE)
 
Loc | Ops | Rwys | IFR | FBO | Links
Com | Nav | Svcs | Stats | Notes
Aerial photo
No photo
 
Airport distance calculator
Flying to Hawk Hollow Heliport? Find the distance to fly.

From to 97MI

Sunrise and sunset
Times for 12-Jul-2020
 Local
(UTC-4)
 Zulu
(UTC)
Morning civil twilight05:3609:36
Sunrise06:1010:10
Sunset21:1101:11
Evening civil twilight21:4501:45

Current date and time
Zulu (UTC)  12-Jul-2020 19:01:31
Local (UTC-4)  12-Jul-2020 15:01:31
 
METAR
KOZW 
11nm W 
121855Z AUTO 29007KT 10SM SCT041 BKN050 BKN060 25/16 A2983 RMK AO2 T02480158
KPTK 
15nm NE 
121853Z 32009KT 280V350 10SM SCT055 BKN250 25/14 A2981 RMK AO2 SLP088 T02500144
KARB 
21nm S 
734-668-7173
121853Z 34006G15KT 10SM FEW047 27/17 A2981 RMK AO2 SLP089 T02670167 $
TAF
KPTK 
15nm NE 
121734Z 1218/1318 32010KT P6SM BKN045 FM130200 02004KT P6SM SCT080 FM131000 32005KT P6SM SCT250 FM131400 33007KT P6SM BKN050
NOTAMs
Click for the latest NOTAMs
NOTAMs are issued by the DoD/FAA and will open in a separate window not controlled by AirNav.

 

 
 

Would you like to see your business listed on this page?

 If your business provides an interesting product or service to pilots, flight crews, aircraft, or users of the Hawk Hollow Heliport, you should consider listing it here.  To start the listing process, click on the button below
 
Add a business
 

Other Pages about Hawk Hollow Heliport

Update a link
 
Copyright © AirNav, LLC. All rights reserved. Privacy Policy  Contact